Time,TemperatureF,DewpointF,PressureIn,WindDirection,WindDirectionDegrees,WindSpeedMPH,WindSpeedGustMPH,Humidity,HourlyPrecipIn,Conditions,Clouds,dailyrainin,SoftwareType,DateUTC
2013-02-22 00:10:00,48.5,46.0,29.90,East,85,0.0,0.0,90,0.00,,,0.00,weatherlink.com 1.10,2013-02-22 06:10:00,
2013-02-22 00:25:00,48.3,46.0,29.90,East,85,0.0,0.0,91,0.00,,,0.00,weatherlink.com 1.10,2013-02-22 06:25:00,
2013-02-22 00:40:00,48.1,46.0,29.91,East,85,0.0,0.0,92,0.00,,,0.00,weatherlink.com 1.10,2013-02-22 06:40:00,
2013-02-22 00:55:00,47.8,46.0,29.91,East,85,0.0,0.0,92,0.00,,,0.00,weatherlink.com 1.10,2013-02-22 06:55:00,
2013-02-22 01:10:00,47.1,45.0,29.91,East,85,0.0,0.0,92,0.00,,,0.00,weatherlink.com 1.10,2013-02-22 07:10:00,
2013-02-22 01:25:00,46.8,45.0,29.90,East,85,0.0,0.0,92,0.00,,,0.00,weatherlink.com 1.10,2013-02-22 07:25:00,
2013-02-22 01:40:00,46.7,45.0,29.89,East,85,0.0,0.0,93,0.00,,,0.00,weatherlink.com 1.10,2013-02-22 07:40:00,
2013-02-22 01:55:00,46.6,45.0,29.90,East,85,0.0,0.0,93,0.00,,,0.00,weatherlink.com 1.10,2013-02-22 07:55:00,
2013-02-22 02:10:00,46.7,45.0,29.91,East,85,0.0,0.0,93,0.00,,,0.00,weatherlink.com 1.10,2013-02-22 08:10:00,
2013-02-22 02:25:00,47.0,45.0,29.89,East,85,0.0,2.0,93,0.00,,,0.00,weatherlink.com 1.10,2013-02-22 08:25:00,
2013-02-22 02:40:00,46.8,45.0,29.90,East,85,0.0,0.0,93,0.00,,,0.00,weatherlink.com 1.10,2013-02-22 08:40:00,
2013-02-22 02:55:00,47.0,45.0,29.90,East,85,0.0,0.0,93,0.00,,,0.00,weatherlink.com 1.10,2013-02-22 08:55:00,
2013-02-22 03:10:00,46.3,44.0,29.91,East,85,0.0,1.0,92,0.00,,,0.00,weatherlink.com 1.10,2013-02-22 09:10:00,
2013-02-22 03:25:00,46.1,44.0,29.91,East,85,0.0,0.0,92,0.00,,,0.00,weatherlink.com 1.10,2013-02-22 09:25:00,
2013-02-22 03:40:00,46.5,44.0,29.92,East,85,0.0,1.0,92,0.00,,,0.00,weatherlink.com 1.10,2013-02-22 09:40:00,
2013-02-22 03:55:00,46.8,45.0,29.91,East,85,0.0,2.0,92,0.00,,,0.00,weatherlink.com 1.10,2013-02-22 09:55:00,
2013-02-22 04:10:00,47.4,46.0,29.92,East,85,0.0,2.0,93,0.00,,,0.00,weatherlink.com 1.10,2013-02-22 10:10:00,
2013-02-22 04:25:00,47.7,46.0,29.93,East,85,0.0,0.0,93,0.00,,,0.00,weatherlink.com 1.10,2013-02-22 10:25:00,
2013-02-22 04:40:00,48.3,46.0,29.94,East,84,1.0,3.0,93,0.00,,,0.00,weatherlink.com 1.10,2013-02-22 10:40:00,
2013-02-22 04:55:00,48.2,46.0,29.95,ENE,70,1.0,3.0,93,0.00,,,0.00,weatherlink.com 1.10,2013-02-22 10:55:00,
2013-02-22 05:10:00,48.3,46.0,29.95,ENE,63,3.0,3.0,93,0.00,,,0.00,weatherlink.com 1.10,2013-02-22 11:10:00,
2013-02-22 05:25:00,48.0,46.0,29.95,NE,46,1.0,4.0,94,0.00,,,0.00,weatherlink.com 1.10,2013-02-22 11:25:00,
2013-02-22 05:40:00,47.9,46.0,29.96,NE,46,0.0,2.0,94,0.00,,,0.00,weatherlink.com 1.10,2013-02-22 11:40:00,
2013-02-22 05:55:00,48.0,46.0,29.97,NE,46,1.0,2.0,94,0.00,,,0.00,weatherlink.com 1.10,2013-02-22 11:55:00,
2013-02-22 06:10:00,48.2,47.0,30.00,NNW,344,5.0,5.0,94,0.00,,,0.00,weatherlink.com 1.10,2013-02-22 12:10:00,
2013-02-22 06:25:00,48.2,47.0,30.01,NNW,340,2.0,6.0,94,0.00,,,0.00,weatherlink.com 1.10,2013-02-22 12:25:00,
2013-02-22 06:40:00,48.1,47.0,29.99,NW,325,2.0,5.0,94,0.00,,,0.00,weatherlink.com 1.10,2013-02-22 12:40:00,
2013-02-22 06:55:00,48.1,47.0,29.99,NW,326,2.0,3.0,94,0.00,,,0.00,weatherlink.com 1.10,2013-02-22 12:55:00,
2013-02-22 07:10:00,48.4,47.0,30.01,NW,323,1.0,5.0,95,0.00,,,0.00,weatherlink.com 1.10,2013-02-22 13:10:00,
2013-02-22 07:26:00,48.7,47.0,30.02,NW,325,4.0,4.0,95,0.00,,,0.00,weatherlink.com 1.10,2013-02-22 13:26:00,
2013-02-22 07:41:00,49.0,48.0,30.02,NNW,329,0.0,3.0,95,0.00,,,0.00,weatherlink.com 1.10,2013-02-22 13:41:00,
2013-02-22 07:55:00,49.3,48.0,30.02,NNW,328,2.0,5.0,95,0.00,,,0.00,weatherlink.com 1.10,2013-02-22 13:55:00,
2013-02-22 08:10:00,49.5,48.0,30.03,NNW,332,2.0,5.0,95,0.00,,,0.00,weatherlink.com 1.10,2013-02-22 14:10:00,
2013-02-22 08:25:00,49.8,48.0,30.04,NW,313,2.0,5.0,94,0.00,,,0.00,weatherlink.com 1.10,2013-02-22 14:25:00,
2013-02-22 08:40:00,50.0,48.0,30.05,NNW,334,2.0,7.0,94,0.00,,,0.00,weatherlink.com 1.10,2013-02-22 14:40:00,
2013-02-22 08:55:00,50.1,49.0,30.05,NW,321,2.0,5.0,94,0.00,,,0.00,weatherlink.com 1.10,2013-02-22 14:55:00,
2013-02-22 09:10:00,49.7,48.0,30.05,NNW,330,2.0,7.0,93,0.00,,,0.00,weatherlink.com 1.10,2013-02-22 15:10:00,
2013-02-22 09:25:00,49.6,47.0,30.05,NNW,346,7.0,8.0,92,0.00,,,0.00,weatherlink.com 1.10,2013-02-22 15:25:00,
2013-02-22 09:40:00,48.7,47.0,30.04,NNW,333,3.0,9.0,92,0.00,,,0.00,weatherlink.com 1.10,2013-02-22 15:40:00,
2013-02-22 09:55:00,48.2,46.0,30.05,NNW,328,4.0,8.0,91,0.00,,,0.00,weatherlink.com 1.10,2013-02-22 15:55:00,
2013-02-22 10:11:00,48.3,46.0,30.05,NNW,337,2.0,4.0,92,0.00,,,0.00,weatherlink.com 1.10,2013-02-22 16:11:00,
2013-02-22 10:25:00,48.0,46.0,30.05,NNW,345,2.0,6.0,91,0.00,,,0.00,weatherlink.com 1.10,2013-02-22 16:25:00,
2013-02-22 10:40:00,48.0,46.0,30.06,NNW,344,2.0,5.0,91,0.00,,,0.00,weatherlink.com 1.10,2013-02-22 16:40:00,
2013-02-22 10:55:00,48.4,46.0,30.05,NNW,333,1.0,7.0,90,0.00,,,0.00,weatherlink.com 1.10,2013-02-22 16:55:00,
2013-02-22 11:10:00,48.5,46.0,30.04,NW,311,3.0,9.0,90,0.00,,,0.00,weatherlink.com 1.10,2013-02-22 17:10:00,
2013-02-22 11:26:00,48.2,45.0,30.05,NNW,334,1.0,8.0,89,0.00,,,0.00,weatherlink.com 1.10,2013-02-22 17:26:00,
2013-02-22 11:41:00,48.2,45.0,30.04,North,360,5.0,7.0,88,0.00,,,0.00,weatherlink.com 1.10,2013-02-22 17:41:00,
2013-02-22 11:56:00,48.7,45.0,30.04,North,355,2.0,8.0,87,0.00,,,0.00,weatherlink.com 1.10,2013-02-22 17:56:00,
2013-02-22 12:11:00,49.2,45.0,30.02,North,355,6.0,7.0,85,0.00,,,0.00,weatherlink.com 1.10,2013-02-22 18:11:00,
2013-02-22 12:26:00,49.7,45.0,30.03,NE,46,0.0,4.0,84,0.00,,,0.00,weatherlink.com 1.10,2013-02-22 18:26:00,
2013-02-22 12:41:00,50.1,46.0,30.02,NNW,327,1.0,4.0,84,0.00,,,0.00,weatherlink.com 1.10,2013-02-22 18:41:00,
2013-02-22 12:56:00,50.9,46.0,30.01,NNW,338,2.0,4.0,83,0.00,,,0.00,weatherlink.com 1.10,2013-02-22 18:56:00,
2013-02-22 13:11:00,51.0,45.0,30.01,NE,55,2.0,3.0,81,0.00,,,0.00,weatherlink.com 1.10,2013-02-22 19:11:00,
2013-02-22 13:26:00,51.8,46.0,30.00,North,360,3.0,4.0,80,0.00,,,0.00,weatherlink.com 1.10,2013-02-22 19:26:00,
2013-02-22 13:41:00,52.9,47.0,30.00,East,90,1.0,6.0,79,0.00,,,0.00,weatherlink.com 1.10,2013-02-22 19:41:00,
2013-02-22 13:56:00,53.2,46.0,29.99,NW,325,1.0,7.0,77,0.00,,,0.00,weatherlink.com 1.10,2013-02-22 19:56:00,
2013-02-22 14:11:00,52.9,46.0,30.00,NW,315,1.0,6.0,78,0.00,,,0.00,weatherlink.com 1.10,2013-02-22 20:11:00,
2013-02-22 14:26:00,53.4,46.0,29.99,NNW,332,0.0,5.0,77,0.00,,,0.00,weatherlink.com 1.10,2013-02-22 20:26:00,
2013-02-22 14:41:00,54.3,47.0,29.99,NE,39,0.0,3.0,76,0.00,,,0.00,weatherlink.com 1.10,2013-02-22 20:41:00,
2013-02-22 14:56:00,54.4,47.0,29.98,NNW,329,3.0,4.0,76,0.00,,,0.00,weatherlink.com 1.10,2013-02-22 20:56:00,
2013-02-22 15:11:00,54.4,47.0,29.98,NNE,20,1.0,3.0,75,0.00,,,0.00,weatherlink.com 1.10,2013-02-22 21:11:00,
2013-02-22 15:26:00,54.6,47.0,29.98,North,355,1.0,3.0,75,0.00,,,0.00,weatherlink.com 1.10,2013-02-22 21:26:00,
2013-02-22 15:41:00,54.7,47.0,29.98,NW,320,2.0,6.0,76,0.00,,,0.00,weatherlink.com 1.10,2013-02-22 21:41:00,
2013-02-22 15:56:00,55.1,47.0,29.98,NNW,340,2.0,3.0,75,0.00,,,0.00,weatherlink.com 1.10,2013-02-22 21:56:00,
2013-02-22 16:11:00,55.5,47.0,29.98,NW,320,0.0,4.0,73,0.00,,,0.00,weatherlink.com 1.10,2013-02-22 22:11:00,
2013-02-22 16:26:00,55.6,47.0,29.98,NW,325,0.0,5.0,74,0.00,,,0.00,weatherlink.com 1.10,2013-02-22 22:26:00,
2013-02-22 16:41:00,55.5,47.0,29.98,NW,323,2.0,4.0,74,0.00,,,0.00,weatherlink.com 1.10,2013-02-22 22:41:00,
2013-02-22 16:56:00,55.3,48.0,29.97,NNW,327,0.0,4.0,75,0.00,,,0.00,weatherlink.com 1.10,2013-02-22 22:56:00,
2013-02-22 17:11:00,55.1,47.0,29.97,NW,322,1.0,4.0,75,0.00,,,0.00,weatherlink.com 1.10,2013-02-22 23:11:00,
2013-02-22 17:26:00,54.9,48.0,29.97,NW,322,1.0,2.0,77,0.00,,,0.00,weatherlink.com 1.10,2013-02-22 23:26:00,
2013-02-22 17:41:00,54.8,48.0,29.98,NW,322,0.0,1.0,79,0.00,,,0.00,weatherlink.com 1.10,2013-02-22 23:41:00,
2013-02-22 17:56:00,54.6,48.0,29.98,NW,322,0.0,2.0,79,0.00,,,0.00,weatherlink.com 1.10,2013-02-22 23:56:00,
2013-02-22 18:11:00,54.0,48.0,29.98,NNW,338,0.0,4.0,79,0.00,,,0.00,weatherlink.com 1.10,2013-02-23 00:11:00,
2013-02-22 18:26:00,53.5,48.0,29.98,NNW,339,0.0,2.0,80,0.00,,,0.00,weatherlink.com 1.10,2013-02-23 00:26:00,
2013-02-22 18:41:00,53.2,48.0,29.99,NNW,338,1.0,3.0,81,0.00,,,0.00,weatherlink.com 1.10,2013-02-23 00:41:00,
2013-02-22 18:56:00,52.9,48.0,29.99,NNW,338,3.0,4.0,82,0.00,,,0.00,weatherlink.com 1.10,2013-02-23 00:56:00,
2013-02-22 19:11:00,52.6,47.0,30.00,NNW,327,2.0,5.0,81,0.00,,,0.00,weatherlink.com 1.10,2013-02-23 01:11:00,
2013-02-22 19:26:00,52.4,47.0,29.99,NNW,330,2.0,6.0,81,0.00,,,0.00,weatherlink.com 1.10,2013-02-23 01:26:00,
2013-02-22 19:41:00,52.0,47.0,30.00,NNW,328,2.0,2.0,83,0.00,,,0.00,weatherlink.com 1.10,2013-02-23 01:41:00,
2013-02-22 19:56:00,51.7,47.0,30.00,NNW,328,1.0,3.0,84,0.00,,,0.00,weatherlink.com 1.10,2013-02-23 01:56:00,
2013-02-22 20:11:00,51.5,47.0,30.00,NNW,329,1.0,4.0,84,0.00,,,0.00,weatherlink.com 1.10,2013-02-23 02:11:00,
2013-02-22 20:26:00,51.4,47.0,30.00,NNW,329,1.0,3.0,84,0.00,,,0.00,weatherlink.com 1.10,2013-02-23 02:26:00,
2013-02-22 20:41:00,51.3,46.0,30.01,NNW,327,0.0,4.0,83,0.00,,,0.00,weatherlink.com 1.10,2013-02-23 02:41:00,
2013-02-22 20:56:00,51.3,46.0,30.01,NNW,327,0.0,2.0,83,0.00,,,0.00,weatherlink.com 1.10,2013-02-23 02:56:00,
2013-02-22 21:11:00,51.0,46.0,30.01,NNW,327,1.0,2.0,83,0.00,,,0.00,weatherlink.com 1.10,2013-02-23 03:11:00,
2013-02-22 21:26:00,50.7,46.0,30.02,NNW,327,0.0,1.0,85,0.00,,,0.00,weatherlink.com 1.10,2013-02-23 03:26:00,
2013-02-22 21:41:00,50.8,47.0,30.03,NNW,327,1.0,3.0,85,0.00,,,0.00,weatherlink.com 1.10,2013-02-23 03:41:00,
2013-02-22 21:56:00,51.0,47.0,30.04,NNW,327,2.0,3.0,85,0.00,,,0.00,weatherlink.com 1.10,2013-02-23 03:56:00,
2013-02-22 22:11:00,50.9,47.0,30.04,NNW,327,1.0,2.0,86,0.00,,,0.00,weatherlink.com 1.10,2013-02-23 04:11:00,
2013-02-22 22:26:00,50.8,47.0,30.05,NNW,327,0.0,2.0,85,0.00,,,0.00,weatherlink.com 1.10,2013-02-23 04:26:00,
2013-02-22 22:41:00,50.7,46.0,30.05,NNW,336,4.0,4.0,84,0.00,,,0.00,weatherlink.com 1.10,2013-02-23 04:41:00,
2013-02-22 22:56:00,50.3,46.0,30.04,NNW,335,1.0,4.0,84,0.00,,,0.00,weatherlink.com 1.10,2013-02-23 04:56:00,
2013-02-22 23:12:00,49.9,45.0,30.04,NNW,335,1.0,4.0,84,0.00,,,0.00,weatherlink.com 1.10,2013-02-23 05:12:00,
2013-02-22 23:26:00,49.5,45.0,30.04,NNW,327,1.0,5.0,84,0.00,,,0.00,weatherlink.com 1.10,2013-02-23 05:26:00,
2013-02-22 23:41:00,49.0,45.0,30.04,NNW,327,2.0,3.0,85,0.00,,,0.00,weatherlink.com 1.10,2013-02-23 05:41:00,
2013-02-22 23:57:00,48.7,44.0,30.04,NNW,328,1.0,4.0,85,0.00,,,0.00,weatherlink.com 1.10,2013-02-23 05:57:00,